Simultaneous Nadir Overpasses (SNOs) Predictions

Prediction of SNOs between NOAA-19 and METOP-C Satellite Orbit:

Table of predicted SNOs for the next 14.0 days since TLE Epoch: 11/4/2022
Index Date (NOAA-19) Time (NOAA-19) Lat,Lon (NOAA-19) SZA (NOAA-19 ) Date (METOP-C) Time (METOP-C) Lat,Lon (METOP-C) SZA (METOP-C ) Distance(km) Time Diff (sec)
1 11/14/2022 06:41:49 -80.91, -65.90 79.01 11/14/2022 06:42:58 -80.90, -65.94 78.99 0.94 69
2 11/14/2022 07:32:51 80.90, 101.72 101.04 11/14/2022 07:33:37 80.91, 101.57 101.05 2.85 46
3 11/14/2022 08:23:48 -80.90, -91.16 78.97 11/14/2022 08:24:19 -80.91, -91.06 78.94 1.80 31
4 11/14/2022 09:14:51 80.90, 76.09 101.04 11/14/2022 09:14:59 80.90, 76.08 101.05 0.22 8
5 11/14/2022 10:05:47 -80.90,-116.41 78.93 11/14/2022 10:05:41 -80.90,-116.55 78.94 2.35 6
6 11/14/2022 10:56:50 80.90, 50.83 101.08 11/14/2022 10:56:20 80.91, 50.96 101.09 2.68 30
7 11/14/2022 11:47:47 -80.90,-142.04 78.92 11/14/2022 11:47:03 -80.90,-142.03 78.95 0.71 44



Historial Predications of SNOs between NOAA-19 and METOP-C
